Time,TemperatureF,DewpointF,PressureIn,WindDirection,WindDirectionDegrees,WindSpeedMPH,WindSpeedGustMPH,Humidity,HourlyPrecipIn,Conditions,Clouds,dailyrainin,SoftwareType,DateUTC
2013-01-12 00:03:00,42.0,38.0,29.97,South,191,1.0,3.0,85,0.00,,,0.16,,2013-01-12 05:03:00,
2013-01-12 00:12:00,42.0,38.0,29.97,South,191,1.0,3.0,85,0.00,,,0.16,,2013-01-12 05:12:00,
2013-01-12 00:22:00,42.0,38.0,29.98,South,191,0.0,4.0,85,0.00,,,0.16,,2013-01-12 05:22:00,
2013-01-12 00:32:00,41.0,37.0,29.97,SSW,192,0.0,3.0,86,0.00,,,0.16,,2013-01-12 05:32:00,
2013-01-12 00:42:00,41.0,37.0,29.97,SSW,192,0.0,3.0,86,0.00,,,0.16,,2013-01-12 05:42:00,
2013-01-12 00:53:00,40.0,36.0,29.98,South,191,2.0,3.0,86,0.00,,,0.16,,2013-01-12 05:53:00,
2013-01-12 01:02:00,40.0,36.0,29.97,SSW,192,1.0,4.0,87,0.00,,,0.16,,2013-01-12 06:02:00,
2013-01-12 01:12:00,40.0,36.0,29.97,SSW,192,1.0,4.0,87,0.00,,,0.16,,2013-01-12 06:12:00,
2013-01-12 01:22:00,40.0,36.0,29.98,South,191,1.0,5.0,87,0.00,,,0.16,,2013-01-12 06:22:00,
2013-01-12 01:33:00,40.0,36.0,29.98,South,191,1.0,3.0,87,0.00,,,0.16,,2013-01-12 06:33:00,
2013-01-12 01:43:00,40.0,36.0,29.98,South,191,1.0,3.0,87,0.00,,,0.16,,2013-01-12 06:43:00,
2013-01-12 01:53:00,40.0,36.0,29.98,South,172,2.0,5.0,87,0.00,,,0.16,,2013-01-12 06:53:00,
2013-01-12 02:02:00,40.0,36.0,29.97,South,184,2.0,5.0,87,0.00,,,0.16,,2013-01-12 07:02:00,
2013-01-12 02:12:00,40.0,36.0,29.99,South,184,1.0,4.0,87,0.00,,,0.16,,2013-01-12 07:12:00,
2013-01-12 02:22:00,40.0,36.0,29.99,South,184,1.0,4.0,87,0.00,,,0.16,,2013-01-12 07:22:00,
2013-01-12 02:32:00,40.0,37.0,30.00,South,183,1.0,4.0,88,0.00,,,0.16,,2013-01-12 07:32:00,
2013-01-12 02:42:00,40.0,37.0,30.00,South,183,1.0,4.0,88,0.00,,,0.16,,2013-01-12 07:42:00,
2013-01-12 02:53:00,39.0,36.0,30.00,South,180,1.0,4.0,88,0.00,,,0.16,,2013-01-12 07:53:00,
2013-01-12 03:02:00,40.0,37.0,30.01,South,180,2.0,4.0,88,0.00,,,0.16,,2013-01-12 08:02:00,
2013-01-12 03:12:00,40.0,37.0,30.01,South,180,2.0,4.0,88,0.00,,,0.16,,2013-01-12 08:12:00,
2013-01-12 03:22:00,40.0,37.0,30.01,South,179,1.0,3.0,88,0.00,,,0.16,,2013-01-12 08:22:00,
2013-01-12 03:32:00,40.0,37.0,30.00,South,179,1.0,3.0,89,0.00,,,0.16,,2013-01-12 08:32:00,
2013-01-12 03:42:00,40.0,37.0,30.00,South,179,1.0,3.0,89,0.00,,,0.16,,2013-01-12 08:42:00,
2013-01-12 03:53:00,40.0,37.0,30.00,South,180,0.0,3.0,89,0.00,,,0.16,,2013-01-12 08:53:00,
2013-01-12 04:02:00,40.0,37.0,29.99,South,180,1.0,3.0,89,0.00,,,0.16,,2013-01-12 09:02:00,
2013-01-12 04:12:00,40.0,37.0,29.99,South,180,1.0,3.0,89,0.00,,,0.16,,2013-01-12 09:12:00,
2013-01-12 04:22:00,40.0,37.0,30.00,South,179,1.0,4.0,89,0.00,,,0.16,,2013-01-12 09:22:00,
2013-01-12 04:32:00,40.0,37.0,29.99,South,180,1.0,3.0,89,0.00,,,0.16,,2013-01-12 09:32:00,
2013-01-12 04:42:00,40.0,37.0,29.99,South,180,1.0,3.0,89,0.00,,,0.16,,2013-01-12 09:42:00,
2013-01-12 04:53:00,40.0,37.0,29.99,South,180,0.0,3.0,89,0.00,,,0.16,,2013-01-12 09:53:00,
2013-01-12 05:02:00,40.0,37.0,29.98,South,180,1.0,3.0,89,0.00,,,0.16,,2013-01-12 10:02:00,
2013-01-12 05:12:00,40.0,37.0,29.98,South,180,1.0,3.0,89,0.00,,,0.16,,2013-01-12 10:12:00,
2013-01-12 05:22:00,40.0,37.0,29.98,South,171,1.0,5.0,90,0.00,,,0.16,,2013-01-12 10:22:00,
2013-01-12 05:32:00,41.0,38.0,29.99,SSE,166,0.0,5.0,90,0.00,,,0.16,,2013-01-12 10:32:00,
2013-01-12 05:42:00,41.0,38.0,29.99,SSE,166,0.0,5.0,90,0.00,,,0.16,,2013-01-12 10:42:00,
2013-01-12 05:52:00,41.0,38.0,29.99,SSE,166,1.0,4.0,90,0.00,,,0.16,,2013-01-12 10:52:00,
2013-01-12 06:02:00,41.0,38.0,30.00,SSE,166,0.0,3.0,90,0.00,,,0.16,,2013-01-12 11:02:00,
2013-01-12 06:12:00,41.0,38.0,30.00,SSE,166,0.0,3.0,90,0.00,,,0.16,,2013-01-12 11:12:00,
2013-01-12 06:22:00,41.0,38.0,30.00,SSE,166,1.0,3.0,90,0.00,,,0.16,,2013-01-12 11:22:00,
2013-01-12 06:32:00,40.0,37.0,30.01,SSE,166,1.0,3.0,90,0.00,,,0.16,,2013-01-12 11:32:00,
2013-01-12 06:42:00,40.0,37.0,30.01,SSE,166,1.0,3.0,90,0.00,,,0.16,,2013-01-12 11:42:00,
2013-01-12 06:53:00,40.0,37.0,30.01,SSE,163,2.0,5.0,90,0.00,,,0.16,,2013-01-12 11:53:00,
2013-01-12 07:03:00,40.0,38.0,30.01,SSE,163,0.0,3.0,91,0.00,,,0.16,,2013-01-12 12:03:00,
2013-01-12 07:12:00,40.0,38.0,30.01,SSE,163,0.0,3.0,91,0.00,,,0.16,,2013-01-12 12:12:00,
2013-01-12 07:22:00,40.0,38.0,30.01,SSE,163,1.0,3.0,91,0.00,,,0.16,,2013-01-12 12:22:00,
2013-01-12 07:32:00,40.0,38.0,30.01,SSE,163,1.0,4.0,91,0.00,,,0.16,,2013-01-12 12:32:00,
2013-01-12 07:43:00,40.0,38.0,30.01,SSE,163,1.0,4.0,91,0.00,,,0.16,,2013-01-12 12:43:00,
2013-01-12 07:53:00,40.0,38.0,30.01,SSE,163,2.0,4.0,91,0.00,,,0.16,,2013-01-12 12:53:00,
2013-01-12 08:02:00,40.0,38.0,30.00,SSE,163,1.0,4.0,91,0.00,,,0.16,,2013-01-12 13:02:00,
2013-01-12 08:12:00,40.0,38.0,30.00,SSE,163,1.0,4.0,91,0.00,,,0.16,,2013-01-12 13:12:00,
2013-01-12 08:23:00,41.0,39.0,30.01,SSE,159,2.0,5.0,91,0.00,,,0.16,,2013-01-12 13:23:00,
2013-01-12 08:33:00,41.0,39.0,30.01,SSE,161,1.0,4.0,91,0.00,,,0.16,,2013-01-12 13:33:00,
2013-01-12 08:43:00,41.0,39.0,30.01,SSE,161,1.0,4.0,91,0.00,,,0.16,,2013-01-12 13:43:00,
2013-01-12 08:53:00,41.0,39.0,30.01,South,183,1.0,5.0,91,0.00,,,0.16,,2013-01-12 13:53:00,
2013-01-12 09:02:00,42.0,40.0,30.00,South,183,2.0,3.0,91,0.00,,,0.16,,2013-01-12 14:02:00,
2013-01-12 09:12:00,42.0,40.0,30.00,South,183,2.0,3.0,91,0.00,,,0.16,,2013-01-12 14:12:00,
2013-01-12 09:22:00,42.0,40.0,30.00,South,183,0.0,3.0,91,0.00,,,0.16,,2013-01-12 14:22:00,
2013-01-12 09:33:00,43.0,41.0,29.99,South,180,2.0,4.0,91,0.00,,,0.16,,2013-01-12 14:33:00,
2013-01-12 09:43:00,43.0,41.0,29.99,South,180,2.0,4.0,91,0.00,,,0.16,,2013-01-12 14:43:00,
2013-01-12 09:53:00,43.0,41.0,30.00,South,180,0.0,3.0,91,0.00,,,0.14,,2013-01-12 14:53:00,
2013-01-12 10:03:00,45.0,43.0,30.01,South,182,0.0,2.0,91,0.00,,,0.14,,2013-01-12 15:03:00,
2013-01-12 10:13:00,45.0,43.0,30.01,South,182,0.0,2.0,91,0.00,,,0.14,,2013-01-12 15:13:00,
2013-01-12 10:23:00,46.0,44.0,30.00,South,182,1.0,3.0,91,0.00,,,0.14,,2013-01-12 15:23:00,
2013-01-12 10:33:00,48.0,45.0,30.00,WSW,238,0.0,6.0,91,0.00,,,0.14,,2013-01-12 15:33:00,
2013-01-12 10:43:00,48.0,45.0,30.00,WSW,238,0.0,6.0,91,0.00,,,0.14,,2013-01-12 15:43:00,
2013-01-12 10:53:00,49.0,46.0,30.01,SW,233,0.0,4.0,88,0.00,,,0.13,,2013-01-12 15:53:00,
2013-01-12 11:03:00,50.0,46.0,30.01,South,179,1.0,3.0,86,0.00,,,0.13,,2013-01-12 16:03:00,
2013-01-12 11:12:00,50.0,46.0,30.01,South,179,1.0,3.0,86,0.00,,,0.13,,2013-01-12 16:12:00,
2013-01-12 11:23:00,50.0,46.0,30.00,South,179,0.0,1.0,85,0.00,,,0.13,,2013-01-12 16:23:00,
2013-01-12 11:33:00,50.0,45.0,30.00,South,182,2.0,4.0,84,0.00,,,0.13,,2013-01-12 16:33:00,
2013-01-12 11:43:00,50.0,45.0,30.00,South,182,2.0,4.0,84,0.00,,,0.13,,2013-01-12 16:43:00,
2013-01-12 11:53:00,52.0,47.0,29.98,South,178,1.0,4.0,83,0.00,,,0.13,,2013-01-12 16:53:00,
2013-01-12 12:02:00,53.0,47.0,29.98,SSW,203,1.0,5.0,81,0.00,,,0.13,,2013-01-12 17:02:00,
2013-01-12 12:12:00,53.0,47.0,29.98,SSW,203,1.0,5.0,81,0.00,,,0.13,,2013-01-12 17:12:00,
2013-01-12 12:23:00,54.0,48.0,29.97,South,180,2.0,9.0,80,0.00,,,0.13,,2013-01-12 17:23:00,
2013-01-12 12:33:00,54.0,48.0,29.97,SSE,163,2.0,6.0,79,0.00,,,0.13,,2013-01-12 17:33:00,
2013-01-12 12:43:00,54.0,48.0,29.97,SSE,163,2.0,6.0,79,0.00,,,0.13,,2013-01-12 17:43:00,
2013-01-12 12:53:00,54.0,48.0,29.98,South,180,1.0,4.0,79,0.00,,,0.12,,2013-01-12 17:53:00,
2013-01-12 13:03:00,55.0,49.0,29.99,SSE,168,0.0,7.0,79,0.00,,,0.12,,2013-01-12 18:03:00,
2013-01-12 13:12:00,55.0,49.0,29.99,SSE,168,0.0,7.0,79,0.00,,,0.12,,2013-01-12 18:12:00,
2013-01-12 13:23:00,55.0,48.0,29.97,South,173,2.0,4.0,78,0.00,,,0.12,,2013-01-12 18:23:00,
2013-01-12 13:33:00,55.0,48.0,29.97,SSE,164,2.0,6.0,78,0.00,,,0.12,,2013-01-12 18:33:00,
2013-01-12 13:43:00,55.0,48.0,29.97,SSE,164,2.0,6.0,78,0.00,,,0.12,,2013-01-12 18:43:00,
2013-01-12 13:53:00,55.0,48.0,29.97,South,180,0.0,5.0,78,0.00,,,0.11,,2013-01-12 18:53:00,
2013-01-12 14:03:00,55.0,48.0,29.98,South,182,0.0,4.0,78,0.00,,,0.11,,2013-01-12 19:03:00,
2013-01-12 14:12:00,55.0,48.0,29.98,South,182,0.0,4.0,78,0.00,,,0.11,,2013-01-12 19:12:00,
2013-01-12 14:23:00,55.0,48.0,29.97,South,182,1.0,5.0,78,0.00,,,0.11,,2013-01-12 19:23:00,
2013-01-12 14:33:00,55.0,48.0,29.97,South,176,1.0,6.0,78,0.00,,,0.11,,2013-01-12 19:33:00,
2013-01-12 14:43:00,55.0,48.0,29.97,South,176,1.0,6.0,78,0.00,,,0.11,,2013-01-12 19:43:00,
2013-01-12 14:53:00,55.0,48.0,29.97,South,170,0.0,4.0,78,0.00,,,0.11,,2013-01-12 19:53:00,
2013-01-12 15:03:00,56.0,49.0,29.96,South,191,2.0,9.0,78,0.00,,,0.11,,2013-01-12 20:03:00,
2013-01-12 15:12:00,57.0,50.0,29.97,SSE,152,1.0,5.0,77,0.00,,,0.11,,2013-01-12 20:12:00,
2013-01-12 15:22:00,57.0,50.0,29.97,SSE,152,1.0,5.0,77,0.00,,,0.11,,2013-01-12 20:22:00,
2013-01-12 15:33:00,57.0,50.0,29.98,SW,234,0.0,4.0,76,0.00,,,0.11,,2013-01-12 20:33:00,
2013-01-12 15:42:00,57.0,50.0,29.98,SW,234,0.0,4.0,76,0.00,,,0.11,,2013-01-12 20:42:00,
2013-01-12 15:53:00,57.0,50.0,29.98,West,267,3.0,6.0,76,0.00,,,0.05,,2013-01-12 20:53:00,
2013-01-12 16:03:00,57.0,50.0,29.98,WSW,254,0.0,5.0,76,0.00,,,0.05,,2013-01-12 21:03:00,
2013-01-12 16:12:00,57.0,50.0,29.97,SSW,196,1.0,9.0,76,0.00,,,0.05,,2013-01-12 21:12:00,
2013-01-12 16:22:00,57.0,50.0,29.97,SSW,196,1.0,9.0,76,0.00,,,0.05,,2013-01-12 21:22:00,
2013-01-12 16:33:00,56.0,49.0,29.98,WSW,255,0.0,4.0,76,0.00,,,0.05,,2013-01-12 21:33:00,
2013-01-12 16:43:00,56.0,49.0,29.98,WSW,255,0.0,4.0,76,0.00,,,0.05,,2013-01-12 21:43:00,
2013-01-12 16:53:00,56.0,49.0,29.98,WSW,256,1.0,3.0,77,0.00,,,0.01,,2013-01-12 21:53:00,
2013-01-12 17:03:00,56.0,49.0,29.98,West,263,1.0,5.0,77,0.00,,,0.01,,2013-01-12 22:03:00,
2013-01-12 17:12:00,56.0,49.0,29.98,West,263,1.0,5.0,77,0.00,,,0.01,,2013-01-12 22:12:00,
2013-01-12 17:23:00,55.0,48.0,29.98,SW,215,0.0,3.0,78,0.00,,,0.01,,2013-01-12 22:23:00,
2013-01-12 17:33:00,54.0,47.0,29.99,SSW,211,0.0,3.0,78,0.00,,,0.01,,2013-01-12 22:33:00,
2013-01-12 17:43:00,54.0,47.0,29.99,SSW,211,0.0,3.0,78,0.00,,,0.01,,2013-01-12 22:43:00,
2013-01-12 17:53:00,53.0,47.0,29.98,SSW,211,0.0,2.0,80,0.00,,,0.00,,2013-01-12 22:53:00,
2013-01-12 18:03:00,53.0,47.0,29.98,WSW,238,0.0,5.0,81,0.00,,,0.00,,2013-01-12 23:03:00,
2013-01-12 18:12:00,52.0,46.0,29.99,SSW,210,0.0,1.0,81,0.00,,,0.00,,2013-01-12 23:12:00,
2013-01-12 18:23:00,52.0,46.0,29.99,SSW,210,0.0,1.0,81,0.00,,,0.00,,2013-01-12 23:23:00,
2013-01-12 18:33:00,51.0,46.0,29.98,SSW,209,0.0,3.0,82,0.00,,,0.00,,2013-01-12 23:33:00,
2013-01-12 18:43:00,51.0,46.0,29.98,SSW,209,0.0,3.0,82,0.00,,,0.00,,2013-01-12 23:43:00,
2013-01-12 18:53:00,50.0,45.0,29.98,SSW,205,0.0,3.0,83,0.00,,,0.00,,2013-01-12 23:53:00,
2013-01-12 19:03:00,51.0,46.0,29.99,West,269,1.0,3.0,83,0.00,,,0.00,,2013-01-13 00:03:00,
2013-01-12 19:12:00,51.0,46.0,29.99,West,269,1.0,3.0,83,0.00,,,0.00,,2013-01-13 00:12:00,
2013-01-12 19:23:00,52.0,47.0,29.99,SW,233,0.0,5.0,83,0.00,,,0.00,,2013-01-13 00:23:00,
2013-01-12 19:33:00,52.0,47.0,30.00,West,279,2.0,7.0,82,0.00,,,0.00,,2013-01-13 00:33:00,
2013-01-12 19:43:00,52.0,47.0,30.00,West,279,2.0,7.0,82,0.00,,,0.00,,2013-01-13 00:43:00,
2013-01-12 19:53:00,53.0,47.0,30.00,West,265,2.0,7.0,81,0.00,,,0.00,,2013-01-13 00:53:00,
2013-01-12 20:03:00,52.0,46.0,29.99,WNW,284,3.0,9.0,81,0.00,,,0.00,,2013-01-13 01:03:00,
2013-01-12 20:12:00,52.0,46.0,29.99,WNW,284,3.0,9.0,81,0.00,,,0.00,,2013-01-13 01:12:00,
2013-01-12 20:23:00,52.0,46.0,29.99,WNW,283,2.0,7.0,81,0.00,,,0.00,,2013-01-13 01:23:00,
2013-01-12 20:33:00,52.0,46.0,29.99,WNW,295,2.0,10.0,81,0.00,,,0.00,,2013-01-13 01:33:00,
2013-01-12 20:43:00,52.0,46.0,29.99,WNW,295,2.0,10.0,81,0.00,,,0.00,,2013-01-13 01:43:00,
2013-01-12 20:53:00,52.0,46.0,30.00,WNW,287,2.0,7.0,81,0.00,,,0.00,,2013-01-13 01:53:00,
2013-01-12 21:02:00,52.0,46.0,29.99,WNW,288,2.0,12.0,81,0.00,,,0.00,,2013-01-13 02:02:00,
2013-01-12 21:13:00,52.0,46.0,29.99,WNW,288,2.0,12.0,81,0.00,,,0.00,,2013-01-13 02:13:00,
2013-01-12 21:23:00,53.0,47.0,29.99,West,279,1.0,11.0,81,0.00,,,0.00,,2013-01-13 02:23:00,
2013-01-12 21:33:00,53.0,47.0,29.99,SW,223,1.0,10.0,81,0.00,,,0.00,,2013-01-13 02:33:00,
2013-01-12 21:43:00,53.0,47.0,29.99,SW,223,1.0,10.0,81,0.00,,,0.00,,2013-01-13 02:43:00,
2013-01-12 21:53:00,53.0,47.0,29.99,WSW,257,2.0,10.0,81,0.00,,,0.00,,2013-01-13 02:53:00,
2013-01-12 22:02:00,53.0,47.0,30.00,West,273,2.0,10.0,81,0.00,,,0.00,,2013-01-13 03:02:00,
2013-01-12 22:12:00,53.0,47.0,30.00,West,273,2.0,10.0,81,0.00,,,0.00,,2013-01-13 03:12:00,
2013-01-12 22:22:00,53.0,47.0,29.99,WSW,251,1.0,7.0,81,0.00,,,0.00,,2013-01-13 03:22:00,
2013-01-12 22:33:00,53.0,47.0,29.98,SSW,200,0.0,7.0,81,0.00,,,0.00,,2013-01-13 03:33:00,
2013-01-12 22:43:00,53.0,47.0,29.98,SSW,200,0.0,7.0,81,0.00,,,0.00,,2013-01-13 03:43:00,
2013-01-12 22:53:00,52.0,47.0,30.00,South,186,3.0,5.0,82,0.00,,,0.00,,2013-01-13 03:53:00,
2013-01-12 23:02:00,51.0,46.0,30.00,South,183,0.0,3.0,82,0.00,,,0.00,,2013-01-13 04:02:00,
2013-01-12 23:12:00,51.0,46.0,30.00,South,183,0.0,3.0,82,0.00,,,0.00,,2013-01-13 04:12:00,
2013-01-12 23:22:00,51.0,46.0,29.99,South,183,1.0,4.0,82,0.00,,,0.00,,2013-01-13 04:22:00,
2013-01-12 23:33:00,50.0,45.0,29.98,South,180,0.0,5.0,82,0.00,,,0.00,,2013-01-13 04:33:00,
2013-01-12 23:43:00,50.0,45.0,29.98,South,180,0.0,5.0,82,0.00,,,0.00,,2013-01-13 04:43:00,
2013-01-12 23:53:00,48.0,43.0,29.99,South,172,2.0,4.0,84,0.00,,,0.00,,2013-01-13 04:53:00,